| time (UTC) | temp C | wind direction | speed KPH | gust KPH | rain 1hr cm | rain 24hr cm | rain mn cm | humidity % | barometer mb |
| 20260508220549 | 11 | 248 | 3.2 | 6.4 | 0.00 | 0.00 | 0.00 | 42 | 1011.3 |
| 20260508220039 | 11 | 315 | 1.6 | 6.4 | 0.00 | 0.00 | 0.00 | 43 | 1011.4 |
| 20260508215529 | 11 | 0 | 3.2 | 6.4 | 0.00 | 0.00 | 0.00 | 42 | 1011.2 |
| 20260508215020 | 11 | 248 | 3.2 | 6.4 | 0.00 | 0.00 | 0.00 | 41 | 1011.2 |
| 20260508214510 | 12 | 315 | 3.2 | 6.4 | 0.00 | 0.00 | 0.00 | 39 | 1011.4 |
| 20260508213959 | 12 | 315 | 3.2 | 6.4 | 0.00 | 0.00 | 0.00 | 37 | 1011.5 |
| 20260508213450 | 13 | 270 | 3.2 | 11.3 | 0.00 | 0.00 | 0.00 | 35 | 1011.4 |
| 20260508212938 | 13 | 248 | 3.2 | 11.3 | 0.00 | 0.00 | 0.00 | 35 | 1011.3 |
| 20260508211919 | 13 | 248 | 3.2 | 12.9 | 0.00 | 0.00 | 0.00 | 34 | 1011.5 |
| 20260508211408 | 13 | 225 | 6.4 | 14.5 | 0.00 | 0.00 | 0.00 | 33 | 1011.5 |
| 20260508210858 | 14 | 225 | 6.4 | 17.7 | 0.00 | 0.00 | 0.00 | 32 | 1011.4 |
| 20260508205837 | 14 | 225 | 6.4 | 20.9 | 0.00 | 0.00 | 0.00 | 30 | 1011.6 |
| 20260508204817 | 15 | 248 | 6.4 | 24.1 | 0.00 | 0.00 | 0.00 | 28 | 1011.3 |
| 20260508204307 | 15 | 225 | 6.4 | 24.1 | 0.00 | 0.00 | 0.00 | 28 | 1011.5 |
| 20260508203757 | 15 | 248 | 16.1 | 22.5 | 0.00 | 0.00 | 0.00 | 27 | 1011.2 |
| 20260508203247 | 15 | 225 | 9.7 | 24.1 | 0.00 | 0.00 | 0.00 | 27 | 1011.3 |
| 20260508202737 | 15 | 180 | 9.7 | 24.1 | 0.00 | 0.00 | 0.00 | 27 | 1011.2 |
| 20260508202229 | 15 | 90 | 11.3 | 24.1 | 0.00 | 0.00 | 0.00 | 26 | 1011.2 |
| 20260508200658 | 15 | 270 | 12.9 | 27.4 | 0.00 | 0.00 | 0.00 | 25 | 1011.2 |
| 20260508200148 | 16 | 225 | 14.5 | 25.7 | 0.00 | 0.00 | 0.00 | 26 | 1011.2 |
| 20260508195638 | 16 | 203 | 14.5 | 22.5 | 0.00 | 0.00 | 0.00 | 26 | 1011.0 |
| 20260508195126 | 16 | 225 | 12.9 | 27.4 | 0.00 | 0.00 | 0.00 | 25 | 1010.8 |
| 20260508194108 | 16 | 248 | 14.5 | 22.5 | 0.00 | 0.00 | 0.00 | 25 | 1010.7 |
| 20260508193557 | 16 | 270 | 6.4 | 25.7 | 0.00 | 0.00 | 0.00 | 25 | 1010.8 |
| 20260508193050 | 16 | 225 | 11.3 | 25.7 | 0.00 | 0.00 | 0.00 | 24 | 1010.7 |
| 20260508192535 | 16 | 225 | 14.5 | 25.7 | 0.00 | 0.00 | 0.00 | 24 | 1010.8 |
| 20260508192026 | 16 | 248 | 8.0 | 27.4 | 0.00 | 0.00 | 0.00 | 24 | 1010.8 |
| 20260508191520 | 16 | 203 | 11.3 | 27.4 | 0.00 | 0.00 | 0.00 | 23 | 1010.8 |
| 20260508191006 | 16 | 158 | 17.7 | 27.4 | 0.00 | 0.00 | 0.00 | 22 | 1011.0 |
| 20260508190455 | 16 | 68 | 14.5 | 33.8 | 0.00 | 0.00 | 0.00 | 23 | 1010.9 |
| 20260508185946 | 16 | 248 | 19.3 | 35.4 | 0.00 | 0.00 | 0.00 | 22 | 1011.0 |
| 20260508185437 | 16 | 270 | 17.7 | 37.0 | 0.00 | 0.00 | 0.00 | 22 | 1011.1 |
| 20260508184414 | 16 | 248 | 19.3 | 40.2 | 0.00 | 0.00 | 0.00 | 19 | 1011.2 |
| 20260508183905 | 16 | 225 | 19.3 | 40.2 | 0.00 | 0.00 | 0.00 | 18 | 1011.4 |
| 20260508183356 | 16 | 225 | 17.7 | 38.6 | 0.00 | 0.00 | 0.00 | 18 | 1011.3 |
| 20260508182846 | 16 | 248 | 17.7 | 38.6 | 0.00 | 0.00 | 0.00 | 19 | 1011.3 |
| 20260508182334 | 16 | 248 | 19.3 | 35.4 | 0.00 | 0.00 | 0.00 | 20 | 1011.4 |
| 20260508181824 | 16 | 225 | 19.3 | 37.0 | 0.00 | 0.00 | 0.00 | 19 | 1011.4 |
| 20260508181314 | 16 | 248 | 20.9 | 37.0 | 0.00 | 0.00 | 0.00 | 20 | 1011.3 |
| 20260508180804 | 15 | 225 | 14.5 | 46.7 | 0.00 | 0.00 | 0.00 | 20 | 1011.3 |
| 20260508180256 | 16 | 203 | 24.1 | 46.7 | 0.00 | 0.00 | 0.00 | 21 | 1011.3 |
| 20260508175744 | 16 | 225 | 16.1 | 38.6 | 0.00 | 0.00 | 0.00 | 22 | 1011.5 |
| 20260508174724 | 16 | 248 | 14.5 | 29.0 | 0.00 | 0.00 | 0.00 | 25 | 1011.7 |
| 20260508174215 | 15 | 203 | 12.9 | 38.6 | 0.00 | 0.00 | 0.00 | 26 | 1011.6 |
| 20260508173704 | 15 | 203 | 17.7 | 38.6 | 0.00 | 0.00 | 0.00 | 26 | 1011.5 |
| 20260508173154 | 15 | 248 | 14.5 | 35.4 | 0.00 | 0.00 | 0.00 | 25 | 1011.6 |
| 20260508172644 | 15 | 225 | 17.7 | 29.0 | 0.00 | 0.00 | 0.00 | 27 | 1011.9 |
| 20260508172133 | 15 | 270 | 12.9 | 29.0 | 0.00 | 0.00 | 0.00 | 29 | 1011.9 |
| 20260508171625 | 15 | 203 | 17.7 | 33.8 | 0.00 | 0.00 | 0.00 | 28 | 1011.8 |
| 20260508171113 | 15 | 203 | 17.7 | 33.8 | 0.00 | 0.00 | 0.00 | 29 | 1012.0 |
| 20260508170604 | 15 | 203 | 11.3 | 33.8 | 0.00 | 0.00 | 0.00 | 30 | 1012.1 |
| 20260508170106 | 15 | 180 | 19.3 | 37.0 | 0.00 | 0.00 | 0.00 | 30 | 1012.1 |
| 20260508165544 | 15 | 225 | 22.5 | 37.0 | 0.00 | 0.00 | 0.00 | 30 | 1012.0 |
| 20260508165032 | 15 | 203 | 9.7 | 35.4 | 0.00 | 0.00 | 0.00 | 32 | 1012.2 |
| 20260508164013 | 14 | 180 | 9.7 | 32.2 | 0.00 | 0.00 | 0.00 | 33 | 1012.3 |
| 20260508163502 | 14 | 225 | 14.5 | 32.2 | 0.00 | 0.00 | 0.00 | 33 | 1012.5 |
| 20260508162952 | 14 | 270 | 11.3 | 37.0 | 0.00 | 0.00 | 0.00 | 34 | 1012.6 |
| 20260508162442 | 13 | 203 | 16.1 | 37.0 | 0.00 | 0.00 | 0.00 | 34 | 1012.7 |
| 20260508161933 | 13 | 203 | 14.5 | 29.0 | 0.00 | 0.00 | 0.00 | 35 | 1012.8 |
| 20260508161422 | 13 | 338 | 8.0 | 29.0 | 0.00 | 0.00 | 0.00 | 36 | 1012.8 |
| 20260508160911 | 13 | 248 | 16.1 | 29.0 | 0.00 | 0.00 | 0.00 | 36 | 1013.3 |
| 20260508160401 | 13 | 270 | 14.5 | 29.0 | 0.00 | 0.00 | 0.00 | 36 | 1013.2 |
| 20260508155853 | 13 | 203 | 8.0 | 29.0 | 0.00 | 0.00 | 0.00 | 37 | 1013.2 |
| 20260508154321 | 13 | 180 | 14.5 | 29.0 | 0.00 | 0.00 | 0.00 | 39 | 1013.3 |
| 20260508153812 | 13 | 293 | 12.9 | 32.2 | 0.00 | 0.00 | 0.00 | 39 | 1013.5 |
| 20260508152750 | 12 | 248 | 11.3 | 32.2 | 0.00 | 0.00 | 0.00 | 39 | 1013.5 |
| 20260508152242 | 12 | 203 | 11.3 | 27.4 | 0.00 | 0.00 | 0.00 | 40 | 1013.6 |
| 20260508151730 | 12 | 225 | 12.9 | 33.8 | 0.00 | 0.00 | 0.00 | 41 | 1013.7 |
| 20260508151219 | 12 | 248 | 12.9 | 33.8 | 0.00 | 0.00 | 0.00 | 41 | 1013.7 |
| 20260508150710 | 12 | 203 | 17.7 | 29.0 | 0.00 | 0.00 | 0.00 | 42 | 1013.9 |
| 20260508150200 | 12 | 203 | 17.7 | 29.0 | 0.00 | 0.00 | 0.00 | 42 | 1014.0 |
| 20260508145650 | 12 | 225 | 12.9 | 29.0 | 0.00 | 0.00 | 0.00 | 43 | 1014.0 |
| 20260508145141 | 12 | 203 | 12.9 | 32.2 | 0.00 | 0.00 | 0.00 | 43 | 1014.1 |
| 20260508144629 | 11 | 203 | 16.1 | 33.8 | 0.00 | 0.00 | 0.00 | 43 | 1013.9 |
| 20260508144119 | 11 | 225 | 17.7 | 33.8 | 0.00 | 0.00 | 0.00 | 44 | 1014.1 |
| 20260508143610 | 11 | 248 | 12.9 | 37.0 | 0.00 | 0.00 | 0.00 | 44 | 1014.1 |
| 20260508143101 | 11 | 203 | 24.1 | 37.0 | 0.00 | 0.00 | 0.00 | 44 | 1014.0 |
| 20260508142551 | 11 | 203 | 19.3 | 35.4 | 0.00 | 0.00 | 0.00 | 45 | 1014.1 |
| 20260508142040 | 11 | 248 | 22.5 | 33.8 | 0.00 | 0.00 | 0.00 | 45 | 1014.1 |
| 20260508141529 | 11 | 90 | 22.5 | 37.0 | 0.00 | 0.00 | 0.00 | 45 | 1014.0 |
| 20260508141020 | 11 | 338 | 17.7 | 37.0 | 0.00 | 0.00 | 0.00 | 45 | 1014.1 |
| 20260508140508 | 11 | 270 | 12.9 | 33.8 | 0.00 | 0.00 | 0.00 | 45 | 1014.2 |
| 20260508135450 | 11 | 248 | 19.3 | 35.4 | 0.00 | 0.00 | 0.00 | 46 | 1014.1 |
| 20260508134938 | 11 | 225 | 16.1 | 35.4 | 0.00 | 0.00 | 0.00 | 46 | 1013.9 |
| 20260508134430 | 11 | 248 | 17.7 | 32.2 | 0.00 | 0.00 | 0.00 | 45 | 1013.8 |
| 20260508133411 | 10 | 248 | 17.7 | 37.0 | 0.00 | 0.00 | 0.00 | 45 | 1013.9 |
| 20260508132858 | 10 | 225 | 14.5 | 38.6 | 0.00 | 0.00 | 0.00 | 45 | 1013.9 |
| 20260508132349 | 10 | 248 | 16.1 | 38.6 | 0.00 | 0.00 | 0.00 | 45 | 1013.9 |
| 20260508131838 | 10 | 270 | 16.1 | 38.6 | 0.00 | 0.00 | 0.00 | 45 | 1014.1 |
| 20260508131328 | 10 | 203 | 19.3 | 38.6 | 0.00 | 0.00 | 0.00 | 45 | 1014.0 |
| 20260508130307 | 10 | 225 | 11.3 | 43.5 | 0.00 | 0.00 | 0.00 | 45 | 1013.7 |
| 20260508125759 | 10 | 248 | 9.7 | 43.5 | 0.00 | 0.00 | 0.00 | 45 | 1013.9 |
| 20260508125246 | 10 | 203 | 24.1 | 43.5 | 0.00 | 0.00 | 0.00 | 45 | 1014.1 |
| 20260508124736 | 10 | 225 | 16.1 | 37.0 | 0.00 | 0.00 | 0.00 | 46 | 1013.7 |
| 20260508124227 | 10 | 203 | 12.9 | 37.0 | 0.00 | 0.00 | 0.00 | 46 | 1014.0 |
| 20260508123718 | 9 | 225 | 22.5 | 37.0 | 0.00 | 0.00 | 0.00 | 46 | 1013.8 |
| 20260508123206 | 9 | 180 | 16.1 | 35.4 | 0.00 | 0.00 | 0.00 | 47 | 1013.8 |
| 20260508122658 | 9 | 225 | 12.9 | 35.4 | 0.00 | 0.00 | 0.00 | 47 | 1013.9 |
| 20260508122147 | 9 | 293 | 14.5 | 29.0 | 0.00 | 0.00 | 0.00 | 49 | 1013.8 |
| 20260508121636 | 8 | 225 | 20.9 | 29.0 | 0.00 | 0.00 | 0.00 | 50 | 1013.8 |
| 20260508121126 | 8 | 225 | 14.5 | 29.0 | 0.00 | 0.00 | 0.00 | 51 | 1013.7 |
| 20260508120616 | 8 | 203 | 12.9 | 27.4 | 0.00 | 0.00 | 0.00 | 52 | 1013.7 |
| 20260508120119 | 8 | 225 | 12.9 | 27.4 | 0.00 | 0.00 | 0.00 | 53 | 1013.8 |
| 20260508115046 | 7 | 338 | 11.3 | 22.5 | 0.00 | 0.00 | 0.00 | 56 | 1013.6 |
| 20260508114535 | 7 | 180 | 6.4 | 20.9 | 0.00 | 0.00 | 0.00 | 57 | 1013.7 |
| 20260508114026 | 7 | 225 | 6.4 | 22.5 | 0.00 | 0.00 | 0.00 | 56 | 1013.7 |
| 20260508113517 | 7 | 225 | 6.4 | 22.5 | 0.00 | 0.00 | 0.00 | 56 | 1013.4 |
| 20260508113006 | 7 | 248 | 8.0 | 20.9 | 0.00 | 0.00 | 0.00 | 57 | 1013.4 |
| 20260508112457 | 7 | 0 | 9.7 | 20.9 | 0.00 | 0.00 | 0.00 | 57 | 1013.6 |
| 20260508111945 | 7 | 293 | 6.4 | 22.5 | 0.00 | 0.00 | 0.00 | 58 | 1013.4 |
| 20260508111435 | 6 | 225 | 12.9 | 22.5 | 0.00 | 0.00 | 0.00 | 58 | 1013.4 |
| 20260508110927 | 6 | 248 | 9.7 | 22.5 | 0.00 | 0.00 | 0.00 | 59 | 1013.2 |
| 20260508110414 | 6 | 338 | 12.9 | 22.5 | 0.00 | 0.00 | 0.00 | 59 | 1013.1 |
| 20260508105354 | 6 | 203 | 8.0 | 17.7 | 0.00 | 0.00 | 0.00 | 61 | 1013.1 |
| 20260508104844 | 6 | 225 | 3.2 | 17.7 | 0.00 | 0.00 | 0.00 | 62 | 1012.9 |
| 20260508104335 | 6 | 158 | 6.4 | 20.9 | 0.00 | 0.00 | 0.00 | 61 | 1012.8 |
| 20260508103824 | 6 | 225 | 8.0 | 24.1 | 0.00 | 0.00 | 0.00 | 59 | 1012.7 |
| 20260508103315 | 7 | 225 | 12.9 | 24.1 | 0.00 | 0.00 | 0.00 | 58 | 1012.8 |
| 20260508102804 | 7 | 293 | 16.1 | 24.1 | 0.00 | 0.00 | 0.00 | 57 | 1012.6 |
| 20260508101744 | 7 | 270 | 12.9 | 32.2 | 0.00 | 0.00 | 0.00 | 57 | 1012.1 |
| 20260508101235 | 7 | 225 | 16.1 | 32.2 | 0.00 | 0.00 | 0.00 | 57 | 1012.1 |
| 20260508100724 | 7 | 315 | 12.9 | 24.1 | 0.00 | 0.00 | 0.00 | 58 | 1012.2 |
| 20260508095705 | 7 | 180 | 16.1 | 29.0 | 0.00 | 0.00 | 0.00 | 57 | 1011.8 |
| 20260508095153 | 7 | 225 | 11.3 | 25.7 | 0.00 | 0.00 | 0.00 | 58 | 1011.8 |
| 20260508094644 | 7 | 180 | 12.9 | 29.0 | 0.00 | 0.00 | 0.00 | 58 | 1011.8 |
| 20260508094133 | 7 | 225 | 14.5 | 29.0 | 0.00 | 0.00 | 0.00 | 58 | 1011.5 |
| 20260508093623 | 7 | 203 | 11.3 | 25.7 | 0.00 | 0.00 | 0.00 | 59 | 1011.5 |
| 20260508093114 | 7 | 248 | 12.9 | 25.7 | 0.00 | 0.00 | 0.00 | 60 | 1011.5 |
| 20260508092603 | 6 | 225 | 11.3 | 20.9 | 0.00 | 0.00 | 0.00 | 62 | 1011.7 |
| 20260508092052 | 6 | 270 | 6.4 | 20.9 | 0.00 | 0.00 | 0.00 | 64 | 1011.7 |
| 20260508091542 | 6 | 270 | 8.0 | 20.9 | 0.00 | 0.00 | 0.00 | 63 | 1011.7 |
| 20260508090522 | 7 | 68 | 11.3 | 25.7 | 0.00 | 0.00 | 0.00 | 61 | 1011.6 |
| 20260508090012 | 7 | 225 | 14.5 | 25.7 | 0.00 | 0.00 | 0.00 | 60 | 1011.6 |
| 20260508085503 | 7 | 293 | 14.5 | 22.5 | 0.00 | 0.00 | 0.00 | 61 | 1011.7 |
| 20260508084954 | 7 | 225 | 8.0 | 24.1 | 0.00 | 0.00 | 0.00 | 62 | 1011.7 |
| 20260508084441 | 7 | 293 | 12.9 | 24.1 | 0.00 | 0.00 | 0.00 | 62 | 1011.8 |
| 20260508083932 | 7 | 248 | 12.9 | 22.5 | 0.00 | 0.00 | 0.00 | 61 | 1011.6 |
| 20260508083423 | 7 | 225 | 9.7 | 24.1 | 0.00 | 0.00 | 0.00 | 59 | 1011.4 |
| 20260508082911 | 7 | 225 | 11.3 | 27.4 | 0.00 | 0.00 | 0.00 | 58 | 1011.3 |
| 20260508082402 | 8 | 270 | 16.1 | 29.0 | 0.00 | 0.00 | 0.00 | 56 | 1011.4 |
| 20260508081852 | 8 | 158 | 14.5 | 32.2 | 0.00 | 0.00 | 0.00 | 55 | 1011.3 |
| 20260508081343 | 8 | 225 | 12.9 | 32.2 | 0.00 | 0.00 | 0.00 | 55 | 1011.1 |
| 20260508080831 | 8 | 203 | 17.7 | 32.2 | 0.00 | 0.00 | 0.00 | 54 | 1011.2 |
| 20260508080328 | 8 | 248 | 14.5 | 33.8 | 0.00 | 0.00 | 0.00 | 55 | 1011.2 |
| 20260508075810 | 8 | 248 | 12.9 | 33.8 | 0.00 | 0.00 | 0.00 | 56 | 1011.3 |
| 20260508075307 | 8 | 315 | 16.1 | 27.4 | 0.00 | 0.00 | 0.00 | 53 | 1011.1 |
| 20260508074751 | 8 | 225 | 12.9 | 24.1 | 0.00 | 0.00 | 0.00 | 55 | 1011.3 |
| 20260508074240 | 7 | 135 | 11.3 | 24.1 | 0.00 | 0.00 | 0.00 | 59 | 1011.5 |
| 20260508073731 | 7 | 270 | 12.9 | 24.1 | 0.00 | 0.00 | 0.00 | 60 | 1011.4 |
| 20260508073222 | 7 | 0 | 11.3 | 22.5 | 0.00 | 0.00 | 0.00 | 60 | 1011.4 |
| 20260508072709 | 7 | 248 | 9.7 | 22.5 | 0.00 | 0.00 | 0.00 | 60 | 1011.2 |
| 20260508072201 | 7 | 225 | 12.9 | 22.5 | 0.00 | 0.00 | 0.00 | 61 | 1011.5 |
| 20260508071650 | 7 | 248 | 11.3 | 20.9 | 0.00 | 0.00 | 0.00 | 62 | 1011.4 |
| 20260508071141 | 7 | 225 | 9.7 | 22.5 | 0.00 | 0.00 | 0.00 | 62 | 1011.5 |
| 20260508070629 | 7 | 225 | 11.3 | 22.5 | 0.00 | 0.00 | 0.00 | 62 | 1011.5 |
| 20260508070119 | 7 | 248 | 12.9 | 17.7 | 0.00 | 0.00 | 0.00 | 63 | 1011.5 |
| 20260508065610 | 7 | 225 | 6.4 | 17.7 | 0.00 | 0.00 | 0.00 | 63 | 1011.6 |
| 20260508065056 | 7 | 225 | 12.9 | 0.0 | 0.00 | 0.00 | 0.00 | 63 | 1011.9 |
| 20260508063521 | 7 | 248 | 8.0 | 20.9 | 0.00 | 0.20 | 0.00 | 62 | 1012.0 |
| 20260508063010 | 7 | 270 | 8.0 | 20.9 | 0.00 | 0.20 | 0.00 | 62 | 1012.0 |
| 20260508062501 | 7 | 203 | 9.7 | 20.9 | 0.00 | 0.20 | 0.00 | 61 | 1012.0 |
| 20260508061950 | 7 | 248 | 8.0 | 22.5 | 0.00 | 0.20 | 0.00 | 61 | 1012.0 |
| 20260508061441 | 8 | 270 | 8.0 | 24.1 | 0.00 | 0.20 | 0.00 | 61 | 1012.1 |
| 20260508060931 | 8 | 225 | 11.3 | 24.1 | 0.00 | 0.20 | 0.00 | 60 | 1012.1 |
| 20260508060420 | 8 | 225 | 9.7 | 22.5 | 0.00 | 0.20 | 0.00 | 59 | 1012.1 |
| 20260508055910 | 8 | 248 | 8.0 | 22.5 | 0.00 | 0.20 | 0.00 | 60 | 1012.2 |
| 20260508055401 | 8 | 248 | 12.9 | 22.5 | 0.00 | 0.20 | 0.00 | 60 | 1012.2 |
| 20260508054851 | 8 | 225 | 11.3 | 22.5 | 0.00 | 0.20 | 0.00 | 60 | 1012.2 |
| 20260508053829 | 8 | 270 | 12.9 | 25.7 | 0.00 | 0.20 | 0.00 | 59 | 1011.9 |
| 20260508053321 | 8 | 248 | 9.7 | 25.7 | 0.00 | 0.20 | 0.00 | 58 | 1012.0 |
| 20260508052809 | 8 | 248 | 11.3 | 20.9 | 0.00 | 0.20 | 0.00 | 58 | 1012.0 |
| 20260508052258 | 8 | 203 | 11.3 | 24.1 | 0.00 | 0.20 | 0.00 | 57 | 1012.0 |
| 20260508051750 | 8 | 203 | 12.9 | 27.4 | 0.00 | 0.20 | 0.00 | 57 | 1011.9 |
| 20260508051239 | 9 | 315 | 12.9 | 27.4 | 0.00 | 0.20 | 0.00 | 56 | 1012.1 |
| 20260508050730 | 8 | 225 | 11.3 | 25.7 | 0.00 | 0.20 | 0.00 | 56 | 1011.8 |
| 20260508050219 | 8 | 248 | 12.9 | 25.7 | 0.00 | 0.20 | 0.00 | 56 | 1011.8 |
| 20260508045157 | 9 | 225 | 19.3 | 33.8 | 0.00 | 0.20 | 0.00 | 56 | 1011.6 |
| 20260508044648 | 8 | 248 | 12.9 | 24.1 | 0.00 | 0.20 | 0.00 | 57 | 1011.5 |
| 20260508044139 | 8 | 203 | 12.9 | 24.1 | 0.00 | 0.20 | 0.00 | 59 | 1011.4 |
| 20260508043628 | 8 | 23 | 6.4 | 22.5 | 0.00 | 0.20 | 0.00 | 58 | 1011.6 |
| 20260508043117 | 8 | 248 | 12.9 | 22.5 | 0.00 | 0.20 | 0.00 | 57 | 1011.4 |
| 20260508042608 | 8 | 203 | 8.0 | 24.1 | 0.00 | 0.20 | 0.00 | 58 | 1011.2 |
| 20260508041547 | 9 | 248 | 11.3 | 20.9 | 0.00 | 0.20 | 0.00 | 57 | 1011.4 |
| 20260508041037 | 8 | 248 | 11.3 | 20.9 | 0.00 | 0.20 | 0.00 | 59 | 1011.2 |
| 20260508040528 | 8 | 225 | 9.7 | 17.7 | 0.00 | 0.20 | 0.00 | 61 | 1011.3 |
| 20260508035507 | 8 | 225 | 6.4 | 20.9 | 0.00 | 0.20 | 0.00 | 63 | 1011.2 |
| 20260508034958 | 8 | 225 | 6.4 | 17.7 | 0.00 | 0.20 | 0.00 | 65 | 1011.1 |
| 20260508034448 | 8 | 225 | 6.4 | 17.7 | 0.00 | 0.20 | 0.00 | 65 | 1011.2 |
| 20260508033936 | 8 | 225 | 8.0 | 17.7 | 0.00 | 0.20 | 0.00 | 64 | 1011.0 |
| 20260508033428 | 8 | 203 | 4.8 | 17.7 | 0.00 | 0.20 | 0.00 | 65 | 1011.0 |
| 20260508032916 | 8 | 158 | 6.4 | 14.5 | 0.00 | 0.20 | 0.00 | 63 | 1010.7 |
| 20260508032406 | 8 | 270 | 6.4 | 17.7 | 0.00 | 0.20 | 0.00 | 64 | 1010.6 |
| 20260508031856 | 8 | 225 | 8.0 | 17.7 | 0.00 | 0.20 | 0.00 | 64 | 1010.8 |
| 20260508031347 | 8 | 225 | 6.4 | 17.7 | 0.00 | 0.20 | 0.00 | 65 | 1011.0 |
| 20260508030328 | 8 | 225 | 6.4 | 25.7 | 0.00 | 0.20 | 0.00 | 65 | 1011.2 |
| 20260508025817 | 8 | 293 | 4.8 | 25.7 | 0.00 | 0.20 | 0.28 | 64 | 1011.1 |
| 20260508025306 | 8 | 248 | 4.8 | 14.5 | 0.00 | 0.20 | 0.28 | 65 | 1011.1 |
| 20260508024755 | 8 | 248 | 3.2 | 17.7 | 0.00 | 0.20 | 0.28 | 66 | 1011.0 |
| 20260508024246 | 8 | 203 | 4.8 | 17.7 | 0.00 | 0.20 | 0.28 | 65 | 1010.8 |
| 20260508023736 | 8 | 315 | 8.0 | 17.7 | 0.00 | 0.20 | 0.28 | 65 | 1010.9 |
| 20260508023226 | 8 | 270 | 8.0 | 20.9 | 0.00 | 0.20 | 0.28 | 65 | 1010.7 |
| 20260508022715 | 8 | 248 | 6.4 | 20.9 | 0.00 | 0.20 | 0.28 | 65 | 1011.0 |
| 20260508022205 | 8 | 270 | 8.0 | 17.7 | 0.00 | 0.20 | 0.28 | 66 | 1010.9 |
| 20260508021655 | 8 | 293 | 4.8 | 14.5 | 0.00 | 0.20 | 0.28 | 67 | 1011.0 |
| 20260508021147 | 8 | 203 | 4.8 | 14.5 | 0.00 | 0.20 | 0.28 | 68 | 1010.9 |
| 20260508020637 | 8 | 270 | 3.2 | 9.7 | 0.00 | 0.20 | 0.28 | 68 | 1010.6 |
| 20260508020125 | 8 | 270 | 3.2 | 9.7 | 0.00 | 0.20 | 0.28 | 67 | 1010.9 |
| 20260508015615 | 9 | 293 | 4.8 | 11.3 | 0.00 | 0.20 | 0.28 | 65 | 1010.6 |
| 20260508015104 | 9 | 270 | 3.2 | 11.3 | 0.00 | 0.20 | 0.28 | 65 | 1010.7 |
| 20260508014554 | 9 | 315 | 3.2 | 11.3 | 0.00 | 0.20 | 0.28 | 64 | 1010.6 |
| 20260508014044 | 9 | 270 | 3.2 | 14.5 | 0.00 | 0.20 | 0.28 | 63 | 1010.6 |
| 20260508013536 | 10 | 248 | 4.8 | 14.5 | 0.00 | 0.20 | 0.28 | 63 | 1010.6 |
| 20260508013023 | 9 | 225 | 4.8 | 17.7 | 0.00 | 0.20 | 0.28 | 63 | 1010.6 |
| 20260508012513 | 9 | 293 | 4.8 | 17.7 | 0.00 | 0.20 | 0.28 | 63 | 1010.7 |
| 20260508012005 | 9 | 248 | 4.8 | 14.5 | 0.00 | 0.20 | 0.28 | 64 | 1010.6 |
| 20260508011455 | 9 | 293 | 6.4 | 14.5 | 0.00 | 0.20 | 0.28 | 64 | 1010.7 |
| 20260508010956 | 9 | 270 | 6.4 | 14.5 | 0.00 | 0.20 | 0.28 | 65 | 1010.8 |
| 20260508010434 | 9 | 203 | 6.4 | 12.9 | 0.00 | 0.20 | 0.28 | 65 | 1010.7 |
| 20260508005924 | 9 | 293 | 3.2 | 12.9 | 0.00 | 0.20 | 0.28 | 66 | 1010.7 |
| 20260508005413 | 9 | 68 | 6.4 | 12.9 | 0.00 | 0.20 | 0.28 | 66 | 1010.9 |
| 20260508004904 | 9 | 248 | 4.8 | 11.3 | 0.00 | 0.20 | 0.28 | 66 | 1010.8 |
| 20260508004353 | 9 | 113 | 3.2 | 11.3 | 0.00 | 0.20 | 0.28 | 66 | 1010.7 |
| 20260508003844 | 9 | 338 | 4.8 | 12.9 | 0.00 | 0.20 | 0.28 | 66 | 1010.5 |
| 20260508003333 | 10 | 225 | 3.2 | 12.9 | 0.00 | 0.20 | 0.28 | 66 | 1010.6 |
| 20260508002824 | 10 | 203 | 6.4 | 17.7 | 0.00 | 0.20 | 0.28 | 65 | 1010.5 |
| 20260508002312 | 10 | 225 | 6.4 | 17.7 | 0.00 | 0.20 | 0.28 | 65 | 1010.5 |
| 20260508001802 | 10 | 248 | 6.4 | 17.7 | 0.00 | 0.20 | 0.28 | 64 | 1010.3 |
| 20260508001252 | 10 | 293 | 6.4 | 14.5 | 0.00 | 0.20 | 0.28 | 63 | 1010.2 |
| 20260508000742 | 10 | 248 | 6.4 | 17.7 | 0.00 | 0.20 | 0.28 | 61 | 1010.1 |
| 20260508000235 | 11 | 225 | 6.4 | 17.7 | 0.00 | 0.20 | 0.28 | 61 | 1010.2 |
| 20260507235722 | 11 | 293 | 6.4 | 17.7 | 0.00 | 0.20 | 0.28 | 60 | 1010.3 |
| 20260507235211 | 10 | 225 | 6.4 | 14.5 | 0.00 | 0.20 | 0.28 | 61 | 1010.3 |
| 20260507234701 | 11 | 225 | 4.8 | 11.3 | 0.00 | 0.20 | 0.28 | 61 | 1010.4 |
| 20260507233642 | 11 | 315 | 3.2 | 9.7 | 0.00 | 0.20 | 0.28 | 59 | 1010.1 |
| 20260507233132 | 11 | 225 | 4.8 | 9.7 | 0.00 | 0.20 | 0.28 | 58 | 1010.3 |
| 20260507232623 | 11 | 248 | 4.8 | 9.7 | 0.00 | 0.20 | 0.28 | 59 | 1010.4 |
| 20260507232110 | 11 | 248 | 3.2 | 9.7 | 0.00 | 0.20 | 0.28 | 60 | 1010.3 |
| 20260507231601 | 11 | 293 | 4.8 | 9.7 | 0.00 | 0.20 | 0.28 | 59 | 1010.3 |
| 20260507231053 | 11 | 248 | 3.2 | 11.3 | 0.00 | 0.20 | 0.28 | 59 | 1010.3 |
| 20260507230540 | 12 | 45 | 3.2 | 14.5 | 0.00 | 0.20 | 0.28 | 58 | 1010.2 |
| 20260507230032 | 12 | 248 | 3.2 | 14.5 | 0.00 | 0.20 | 0.28 | 54 | 1010.2 |
| 20260507225521 | 12 | 225 | 4.8 | 12.9 | 0.00 | 0.20 | 0.28 | 56 | 1010.2 |
| 20260507225012 | 12 | 338 | 4.8 | 14.5 | 0.00 | 0.20 | 0.28 | 55 | 1010.1 |
| 20260507223950 | 13 | 90 | 3.2 | 9.7 | 0.00 | 0.20 | 0.28 | 56 | 1010.1 |
| 20260507223440 | 13 | 203 | 3.2 | 12.9 | 0.00 | 0.20 | 0.28 | 54 | 1010.0 |
| 20260507222930 | 13 | 248 | 4.8 | 12.9 | 0.00 | 0.20 | 0.28 | 52 | 1009.6 |
| 20260507222421 | 13 | 248 | 8.0 | 12.9 | 0.00 | 0.20 | 0.28 | 52 | 1009.6 |
| 20260507221911 | 13 | 225 | 6.4 | 12.9 | 0.00 | 0.20 | 0.28 | 52 | 1009.4 |